ATLAS 5 CENTAUR DEB, 44666

Orbit data source: Space-Track

ATLAS 5 CENTAUR DEB, 44666 is space debris in HEO originally from a launch on Wed, 17 Oct 2018 UTC launched from the Air Force Eastern Test Range (AFETR). Debris objects in space refer to the collection of defunct objects orbiting the Earth. Examples of debris include non-operational satellites, rocket bodies, and fragments generated from explosions, collisions, or faulty payload assembly.

Loading next visibility...
Identifier
44666, 2018-079AC
Orbit
HEO
Country
Flag of USUS
Related business
Flag of USUnited Launch Alliance/Lockheed Martin (US)
Manufacturer
ULA Decatur
Mission
Spacecraft
Bus & Motor
Unknown
Mass
Unknown
Launch date (UTC)
2018-10-17 (7 years ago)
Launch vehicle
Unknown
Launch site
Air Force Eastern Test Range (AFETR)
Object type
Payload
Rocket body
Debris
Shape & HBR
Unknown shape, 1.1 m
Radar Cross Section
RCS unknown

Expand to show TLE details & history
Last TLE update: 1 day ago

TLE from 1 day ago
0 ATLAS 5 CENTAUR DEB
1 44666U 18079AC  25300.44567831 -.00000109  00000-0  00000-0 0  9990
2 44666  12.7921  51.3900 4443944 293.7274  26.4808  1.90657526 44584
Epoch: 2025-10-27T10:41Z
TLE epoch observation values (Epoch: 2025-10-27T10:41:46.605Z)
Latitude
-0.00003°
Longitude
-145.15351°
Altitude
12,312.287 km
Speed
5.305 km/s
True Right ascension
03h 25m 21s
True Declination
0° 00' 00"
Sunlit
Object was in daylight at epoch
Visualization orbit readout
Latitude
Unknown
Longitude
Unknown
Altitude
Unknown
Speed
Unknown
Apparent Right ascension
Unknown
Apparent Declination
Unknown
Sunlit
N/A
Visualization observer readout
Local Sidereal Time
09:46:19
Azimuth
Unknown
Elevation
Unknown
Doppler factor
Unknown
Orbital elements
Apogee altitude
33,306.09 km
Perigee altitude
8,886.931 km
Semi-major axis
27,474.648 km
Eccentricity
0.44439
Inclination
12.7921°
RAAN
51.39°
Arg. of periapsis
293.7274°
True anomaly
66.48782°
Mean anomaly
26.4808°
Eccentric anomaly
44.2469°
Mean motion
0.47659 °/min
Orbital period
755.37 mins
BSTAR
0
Loading maneuver chart data...
Computing Atmospheric mass density...

Documentation

Showing up to 5 results
|